Probability
0 0 0 0 0 0 0 0 0 0 0 0 0 0 0 0 0 0 0 0 0 0 0 0 0 0 0 0 0 0 0 0 0 0 0 0 0 0
0 0 0 0 0 0 0 0 0 0 0 0 0 0 0 0 0 0 0 0 0 0 0 0 0 0 0 0 0 0 0 0 0 0 0 0 0 0
0 0 0 0 0 0 0 0 0 0 0 0 0 0 0 0 0 0 0 0 0 0 0 0 0 0 0 0 0 0 0 0 0 0 0 0 0 0
0 0 0 0 0 0 0 0 0 0 0 0 0 0 0 0 0 0 0 0 0 0 0 0 0 0 0 0 0 0 0 0 0 0 0 0 0 0
0 0 0 0 0 0 0 0 0 0 0 0 0 0 0 0 0 0 0 0 0 0 0 0 0 0 0 0 0 0 0 0 0 0 0 0 0 0
0 0 0 0 0 0 0 0 0 0 0 0 0 0 0 0 0 0 0 0 0 0 0 0 0 0 0 0 0 0 0 0 0 0 0 0 0 0
0 0 0 0 0 0 0 0 0 0 0 0 0 0 0 0 0 0 0 0 0 0 0 0 0 0 0 0 0 0 0 0 0 0 0 0 0 0
0 0 0 0 0 0 0 0 0 0 0 0 0 0 0 0 0 0 0 0 0 0 0 0 0 0 0 0 0 0 0 0 0 0 0 0 0 0
0 0 0 0 0 0 0 0 0 0 0 0 0 0 0 0 0 0 0 0 0 0 0 0 0 0 0 0 0 0 0 0 0 0 0 0 0 0
0 0 0 0 0 0 0 0 0 0 0 0 0 0 0 0 0 0 0 0 0 0 0 0 0 0 0 0 0 0 0 0 0 0 0 0 0 0
0 0 0 0 0 0 0 0 0 0 0 0 0 0 0 0 0 0 0 0 0 0 0 0 0 0 0 0 0 0 0 0 0 0 0 0 0 0
0 0 0 0 0 0 0 0 0 0 0 0 0 0 0 0 0 0 0 0 0 0 0 0 0 0 0 0 0 0 0 0 0 0 0 0 0 0
0 0 0 0 0 0 0 0 0 0 0 0 0 0 0 0 0 0 0 0 0 0 0 0 0 0 0 0 0 0 0 0 0 0 0 0 0 0
0 0 0 0 0 0 0 0 0 0 0 0 0 0 0 0 0 0 0 0 0 0 0 0 0 0 0 0 0 0 0 0 0 0 0 0 0 0
0 0 0 0 0 0 0 0 0 0 0 0 0 0 0 0 0 0 0 0 0 0 0 0 0 0 0 0 0 0 0 0 0 0 0 0 0 0
0 0 0 0 0 0 0 0 0 0 0 0 0 0 0 0 0 0 0 0 0 0 0 0 0 0 0 0 0 0 0 0 0 0 0 0 0 0
0 0 0 0 0 0 0 0 0 0 0 0 0 0 0 0 0 0 0 0 0 0 0 0 0 0 0 0 0 0 0 0 0 0 0 0 0 0
0 0 0 0 0 0 0 0 0 0 0 0 0 0 0 0 0 0 0 0 0 0 0 0 0 0 0 0 0 0 0 0 0 0 0 0 0 0
0 0 0 0 0 0 0 0 0 0 0 0 0 0 0 0 0 0 0 0 0 0 0 0 0 0 0 0 0 0 0 0 0 0 0 0 0 0
0 0 0 0 0 0 0 0 0 0 0 0 0 0 0 0 0 0 0 0 0 0 0 0 0 0 0 0 0 0 0 0 0 0 0 0 0 0
0 0 0 0 0 0 0 0 0 0 0 0 0 0 0 0 0 0 0 0 0 0 0 0 0 0 0 0 0 0 0 0 0 0 0 0 0 0
0 0 0 0 0 0 0 0 0 0 0 0 0 0 0 0 0 0 0 0 0 0 0 0 0 0 0 0 0 0 0 0 0 0 0 0 0 0
0 0 0 0 0 0 0 0 0 0 0 0 0 0 0 0 0 0 0 0 0 0 0 0 0 0 0 0 0 0 0 0 0 0 0 0 0 0
Wind_Speed
6 6 5 3 3 3 4 5 6 5 2 1 1 1 2 2 4 2 2 6 7 6 5 4 4 3 3 3 3 3 4 5 6 7 8 9 10 10
6 7 6 4 4 4 4 3 3 5 4 2 2 2 2 2 5 3 3 6 7 7 7 7 6 5 4 4 4 4 4 5 6 7 8 9 9 10
7 8 7 6 5 5 5 4 4 4 5 2 1 1 1 1 1 1 2 3 3 7 8 8 8 7 6 5 5 4 4 4 5 6 7 8 9 10
7 8 7 7 7 5 5 5 4 4 5 4 1 1 0 1 1 1 2 2 2 5 7 8 9 8 7 6 6 5 5 4 5 5 6 7 8 9
7 7 6 8 8 6 6 5 4 4 4 4 2 1 1 1 1 2 2 2 2 2 5 7 8 8 8 7 7 7 6 6 5 5 6 7 8 9
6 6 6 7 6 6 5 5 5 5 5 4 3 2 2 2 2 2 2 2 2 2 2 2 5 7 8 8 8 8 7 7 6 6 6 6 7 8
6 6 6 7 8 6 4 4 5 4 4 4 3 2 2 2 1 1 1 2 2 1 2 2 2 2 3 6 8 8 8 8 7 6 6 6 7 8
5 5 6 7 8 9 8 6 5 5 4 3 2 2 0 1 0 1 1 2 3 2 1 2 1 2 3 3 6 8 8 8 7 7 7 7 7 8
5 4 4 6 6 5 7 8 6 5 5 4 3 2 2 2 1 0 0 1 3 3 0 2 2 2 3 4 7 8 8 8 8 8 8 8 7 8
5 5 5 4 5 5 5 6 5 3 1 1 2 3 3 3 3 2 2 2 3 2 1 1 2 3 3 3 5 7 8 8 9 8 8 8 8 8
4 4 4 4 6 7 6 5 5 4 3 2 3 4 5 5 4 2 1 2 2 3 1 1 2 2 3 3 4 6 8 9 9 9 9 9 9 7
3 3 4 4 5 6 4 3 3 3 5 6 5 4 3 2 4 4 3 2 1 3 2 1 1 1 3 3 3 3 4 7 9 10 10 10 8 4
2 1 2 3 4 4 3 1 1 3 3 3 3 3 3 2 1 2 4 4 3 4 4 2 1 1 1 3 4 3 2 3 3 4 7 9 9 5
1 1 2 3 4 4 2 3 4 3 2 3 3 3 2 3 3 3 3 5 5 6 5 3 3 3 2 2 4 4 3 3 2 3 3 5 6 7
1 2 3 4 3 4 5 6 4 2 2 2 2 2 3 3 3 3 3 2 3 4 4 4 4 3 3 3 3 3 3 3 2 2 3 3 3 2
3 4 5 5 3 3 4 4 2 1 0 0 2 3 3 3 2 2 2 3 3 4 4 2 3 4 3 3 3 3 3 3 3 2 2 3 3 3
2 3 4 4 4 3 3 3 2 2 2 2 2 2 3 3 3 2 2 1 1 3 4 4 2 1 4 3 2 3 3 3 3 2 2 3 4 4
3 2 2 2 2 2 2 2 2 2 2 2 2 2 2 2 3 3 2 1 2 2 3 3 3 4 4 3 5 4 3 3 3 2 2 2 5 4
2 1 1 1 1 1 1 1 1 2 2 1 2 2 2 2 2 3 3 2 3 3 3 2 1 1 1 4 6 4 4 3 2 2 2 3 4 5
1 0 1 1 0 0 1 1 1 2 2 2 2 3 3 2 3 3 3 3 3 3 3 3 2 2 4 4 4 5 6 5 3 3 3 2 4 5
1 1 1 1 0 0 1 1 1 1 2 2 2 3 3 3 3 4 4 5 3 2 3 4 5 5 3 1 2 5 5 5 7 5 3 1 3 4
1 0 0 1 1 1 1 2 2 2 3 2 2 3 3 3 3 5 4 4 3 3 3 4 5 3 1 0 2 4 5 6 4 6 8 8 4 3
2 2 1 1 1 1 2 2 2 2 2 2 2 3 3 3 4 4 4 4 4 4 3 4 4 3 2 1 1 2 3 4 4 4 4 6 12 14
Wind_Direction
78 78 73 60 64 76 102 132 136 135 139 175 151 199 177 185 209 197 214 224 224 222 222 228 238 252 273 293 310 321 325 330 333 334 334 333 333 332
72 73 67 61 65 65 79 82 102 125 132 166 184 180 179 191 202 201 229 237 239 235 229 229 235 242 254 266 279 291 303 317 326 330 332 333 334 333
70 74 68 63 64 59 64 71 78 103 115 96 66 111 140 183 205 249 257 245 249 243 232 227 231 235 241 252 263 272 286 303 316 323 327 330 332 333
75 73 67 70 61 57 63 65 70 82 116 117 78 54 94 215 239 282 290 261 249 251 236 228 230 232 235 243 251 257 265 278 293 306 316 325 328 331
77 78 72 73 66 61 64 64 67 77 93 113 96 41 26 20 33 349 341 336 288 259 232 232 237 238 237 239 243 250 257 263 273 288 303 315 322 325
73 76 75 76 78 75 72 69 78 78 81 92 82 50 35 9 55 22 353 337 322 333 315 258 249 247 243 240 241 245 253 259 261 271 285 299 308 314
66 69 75 81 80 78 87 83 84 83 81 83 78 55 28 26 17 347 360 328 321 336 333 307 287 272 257 248 243 247 252 256 258 263 273 286 298 305
75 64 64 56 56 58 67 86 102 106 108 102 97 104 238 250 294 19 35 20 322 308 357 302 300 278 266 246 247 250 253 255 254 257 266 279 293 304
86 76 65 51 48 47 47 53 58 83 121 136 137 186 210 219 183 5 308 219 248 268 36 302 312 290 278 266 254 250 251 253 253 254 262 273 289 303
93 97 86 51 42 57 58 49 39 33 71 146 193 224 224 214 190 190 215 278 289 287 160 258 298 290 294 297 275 260 257 257 258 259 265 272 283 296
76 87 91 73 55 68 67 52 31 3 359 347 257 253 248 231 190 140 67 51 342 308 300 186 280 304 306 294 288 277 268 267 267 266 267 270 278 290
58 50 62 74 64 71 79 68 33 337 339 343 347 345 332 297 197 182 174 160 213 284 274 185 270 335 319 294 288 290 282 275 272 268 266 268 273 276
75 31 356 18 28 39 67 96 314 316 328 342 345 348 349 341 304 220 200 181 190 239 243 179 225 217 220 289 302 287 268 270 283 275 269 269 267 245
92 313 301 326 343 351 356 331 352 18 20 19 15 355 337 320 304 285 243 223 217 228 244 187 208 205 200 267 287 299 300 276 256 267 274 283 277 260
347 301 314 322 335 342 340 348 8 31 29 23 353 312 287 287 303 318 323 301 277 255 242 211 202 203 182 211 253 275 297 297 274 268 275 265 260 256
3 349 2 15 19 347 343 359 18 23 124 297 295 301 317 334 338 336 334 343 346 322 311 278 216 194 209 226 219 255 255 271 290 282 276 280 270 242
5 18 22 17 13 7 5 4 9 21 22 348 348 350 349 348 332 333 340 350 351 311 310 321 328 238 218 204 225 249 257 267 261 269 287 296 282 259
67 44 16 11 10 3 11 5 358 354 343 349 4 358 346 337 330 331 345 344 318 295 287 292 329 353 352 302 218 223 252 256 267 263 226 259 288 282
79 49 347 328 336 348 354 346 320 313 324 355 5 353 341 338 340 335 336 334 319 301 287 278 273 155 333 304 293 224 209 253 268 279 245 219 249 272
67 214 248 271 303 322 328 333 333 347 3 7 2 355 353 346 343 336 329 320 308 306 309 304 272 217 204 227 261 282 231 214 231 250 263 260 264 278
317 259 237 243 285 3 9 25 38 23 17 18 10 2 354 350 338 330 327 328 326 309 306 292 276 276 225 184 308 301 292 243 213 210 218 252 302 316
254 170 140 119 103 79 77 77 62 44 29 25 6 357 351 351 338 329 326 322 310 292 283 286 306 341 55 356 286 287 300 314 296 246 227 203 196 228
185 147 131 109 101 106 104 90 81 53 23 5 353 346 345 341 331 327 324 321 316 313 314 320 333 352 351 314 292 295 308 316 329 337 313 266 238 246